This demonstration page uses our WeatherBlox Daily Observations layout. Learn more.

Left ArrowRight Arrow

39.12711, -84.51439

Hourly Observations for September 23, 2022

Temp ( °F °C ) Dew Point ( °F °C ) Humidity (%) Winds ( mph kmh ) Pressure ( in mb ) Visibility ( mi km ) Precip ( " mm )
12:53 am 00:53 Clear 51 10.6 44 6.7 77 77 Calm 30.17 1022 10 16 0.00 0.00
1:53 am 01:53 Clear 50 10 45 7.2 83 83 E 3 6 30.18 1022 10 16 0.00 0.00
2:53 am 02:53 Clear 50 10 46 7.8 86 86 Calm 30.18 1022 10 16 0.00 0.00
3:53 am 03:53 Clear 47 8.3 45 7.2 93 93 Calm 30.19 1022 10 16 0.00 0.00
4:53 am 04:53 Clear 43 6.1 42 5.6 97 97 Calm 30.21 1023 8 13 0.00 0.00
5:53 am 05:53 Clear 46 7.8 45 7.2 96 96 Calm 30.22 1023 7 11 0.00 0.00
6:53 am 06:53 Clear 45 7.2 43 6.1 93 93 Calm 30.24 1024 10 16 0.00 0.00
7:53 am 07:53 Sunny 45 7.2 44 6.7 97 97 Calm 30.26 1025 10 16 0.00 0.00
8:53 am 08:53 Sunny 50 10 47 8.3 89 89 Calm 30.27 1025 10 16 0.00 0.00
9:53 am 09:53 Sunny 54 12.2 44 6.7 69 69 VRB 3 6 30.29 1026 10 16 0.00 0.00
10:53 am 10:53 Sunny 58 14.4 44 6.7 60 60 NE 7 11 30.28 1025 10 16 0.00 0.00
11:53 am 11:53 Sunny 60 15.6 45 7.2 57 57 NNE 5 7 30.27 1025 10 16 0.00 0.00
12:53 pm 12:53 Sunny 64 17.8 44 6.7 48 48 NNW 7 11 30.26 1025 10 16 0.00 0.00
1:53 pm 13:53 Sunny 66 18.9 42 5.6 42 42 WNW 6 9 30.24 1024 10 16 0.00 0.00
2:53 pm 14:53 Sunny 66 18.9 42 5.6 42 42 N 6 9 30.20 1023 10 16 0.00 0.00
3:53 pm 15:53 Sunny 68 20 42 5.6 39 39 Calm 30.19 1022 10 16 0.00 0.00
4:53 pm 16:53 Sunny 68 20 40 4.4 36 36 ENE 3 6 30.18 1022 10 16 0.00 0.00
5:53 pm 17:53 Sunny 66 18.9 41 5 40 40 Calm 30.17 1022 10 16 0.00 0.00
6:53 pm 18:53 Sunny 62 16.7 48 8.9 60 60 E 6 9 30.15 1021 10 16 0.00 0.00
7:53 pm 19:53 Clear 63 17.2 45 7.2 52 52 Calm 30.14 1021 10 16 0.00 0.00
8:53 pm 20:53 Clear 60 15.6 47 8.3 62 62 ENE 3 6 30.13 1020 10 16 0.00 0.00
9:53 pm 21:53 Clear 58 14.4 49 9.4 72 72 Calm 30.14 1021 10 16 0.00 0.00
10:53 pm 22:53 Cloudy 57 13.9 53 11.7 87 87 Calm 30.14 1021 10 16 0.01 0.13
11:53 pm 23:53 Mostly Cloudy with Light Rain 56 13.3 53 11.7 90 90 Calm 30.13 1020 7 11 0.01 0.13

Powered by AerisWeather